| time (UTC) | temp F | wind direction | speed MPH | gust MPH | rain 1hr in | rain 24hr in | rain mn in | humidity % | barometer mb |
| 20260505124525 | 58 | 106 | 0.0 | 1.0 | 0.00 | 0.00 | 0.00 | 57 | 1004.8 |
| 20260505123023 | 58 | 151 | 0.0 | 0.0 | 0.00 | 0.00 | 0.00 | 56 | 1004.7 |
| 20260505121520 | 59 | 127 | 0.0 | 3.0 | 0.00 | 0.00 | 0.00 | 56 | 1004.5 |
| 20260505120024 | 58 | 122 | 0.0 | 0.0 | 0.00 | 0.00 | 0.00 | 56 | 1004.2 |
| 20260505114514 | 59 | 133 | 0.0 | 4.0 | 0.00 | 0.00 | 0.00 | 55 | 1004.1 |
| 20260505113012 | 60 | 110 | 0.0 | 3.0 | 0.00 | 0.00 | 0.00 | 55 | 1004.1 |
| 20260505111511 | 60 | 106 | 0.0 | 3.0 | 0.00 | 0.00 | 0.00 | 55 | 1004.1 |
| 20260505101504 | 61 | 224 | 0.0 | 2.0 | 0.00 | 0.00 | 0.00 | 54 | 1003.8 |
| 20260505100004 | 60 | 111 | 0.0 | 3.0 | 0.00 | 0.00 | 0.00 | 55 | 1003.7 |
| 20260505094501 | 60 | 98 | 0.0 | 1.0 | 0.00 | 0.00 | 0.00 | 55 | 1003.6 |
| 20260505093058 | 61 | 117 | 0.0 | 2.0 | 0.00 | 0.00 | 0.00 | 53 | 1003.5 |
| 20260505091556 | 62 | 110 | 0.0 | 5.0 | 0.00 | 0.00 | 0.00 | 52 | 1003.4 |
| 20260505090058 | 63 | 89 | 0.0 | 3.0 | 0.00 | 0.00 | 0.00 | 51 | 1003.4 |
| 20260505084552 | 63 | 110 | 0.0 | 0.0 | 0.00 | 0.00 | 0.00 | 52 | 1003.4 |
| 20260505083101 | 63 | 106 | 0.0 | 1.0 | 0.00 | 0.00 | 0.00 | 51 | 1003.3 |
| 20260505081552 | 64 | 97 | 0.0 | 0.0 | 0.00 | 0.00 | 0.00 | 50 | 1003.3 |
| 20260505080044 | 65 | 98 | 0.0 | 0.0 | 0.00 | 0.00 | 0.00 | 48 | 1003.2 |
| 20260505074544 | 65 | 98 | 0.0 | 0.0 | 0.00 | 0.00 | 0.00 | 49 | 1003.1 |
| 20260505073040 | 64 | 146 | 0.0 | 0.0 | 0.00 | 0.00 | 0.00 | 50 | 1002.9 |
| 20260505071540 | 65 | 114 | 0.0 | 0.0 | 0.00 | 0.00 | 0.00 | 49 | 1002.7 |
| 20260505070044 | 65 | 115 | 0.0 | 1.0 | 0.00 | 0.00 | 0.00 | 49 | 1002.6 |
| 20260505064551 | 66 | 99 | 0.0 | 0.0 | 0.00 | 0.00 | 0.00 | 48 | 1002.6 |
| 20260505063033 | 66 | 108 | 0.0 | 0.0 | 0.00 | 0.00 | 0.00 | 46 | 1002.5 |
| 20260505061540 | 67 | 98 | 0.0 | 3.0 | 0.00 | 0.00 | 0.00 | 46 | 1002.4 |
| 20260505060032 | 67 | 105 | 0.0 | 0.0 | 0.00 | 0.00 | 0.00 | 45 | 1002.3 |
| 20260505054532 | 68 | 271 | 0.0 | 1.0 | 0.00 | 0.00 | 0.00 | 45 | 1002.3 |
| 20260505053031 | 68 | 108 | 0.0 | 1.0 | 0.00 | 0.00 | 0.00 | 44 | 1002.2 |
| 20260505051531 | 69 | 101 | 0.0 | 1.0 | 0.00 | 0.00 | 0.00 | 42 | 1002.1 |
| 20260505041533 | 72 | 107 | 1.0 | 3.0 | 0.00 | 0.00 | 0.00 | 38 | 1001.5 |
| 20260505040028 | 74 | 113 | 0.0 | 0.0 | 0.00 | 0.00 | 0.00 | 36 | 1001.2 |
| 20260505034527 | 75 | 285 | 0.0 | 6.0 | 0.00 | 0.00 | 0.00 | 34 | 1001.1 |
| 20260505033030 | 76 | 259 | 0.0 | 6.0 | 0.00 | 0.00 | 0.00 | 34 | 1000.8 |
| 20260505031527 | 77 | 257 | 0.0 | 9.0 | 0.00 | 0.00 | 0.00 | 33 | 1000.6 |
| 20260505030025 | 77 | 286 | 1.0 | 6.0 | 0.00 | 0.00 | 0.00 | 32 | 1000.2 |
| 20260505024538 | 78 | 226 | 1.0 | 5.0 | 0.00 | 0.00 | 0.00 | 30 | 1000.1 |
| 20260505023025 | 80 | 316 | 1.0 | 12.0 | 0.00 | 0.00 | 0.00 | 28 | 999.9 |
| 20260505021525 | 81 | 285 | 6.0 | 13.0 | 0.00 | 0.00 | 0.00 | 27 | 999.8 |
| 20260505020024 | 82 | 266 | 1.0 | 6.0 | 0.00 | 0.00 | 0.00 | 27 | 999.7 |
| 20260505014525 | 82 | 321 | 3.0 | 10.0 | 0.00 | 0.00 | 0.00 | 25 | 999.7 |
| 20260505013024 | 82 | 315 | 2.0 | 11.0 | 0.00 | 0.00 | 0.00 | 26 | 999.7 |
| 20260505011522 | 83 | 343 | 2.0 | 14.0 | 0.00 | 0.00 | 0.00 | 25 | 999.7 |
| 20260505010016 | 84 | 271 | 1.0 | 8.0 | 0.00 | 0.00 | 0.00 | 25 | 999.7 |
| 20260505004615 | 84 | 269 | 4.0 | 8.0 | 0.00 | 0.00 | 0.00 | 24 | 999.7 |
| 20260505003013 | 84 | 259 | 2.0 | 6.0 | 0.00 | 0.00 | 0.00 | 25 | 999.6 |
| 20260505001505 | 83 | 273 | 1.0 | 5.0 | 0.00 | 0.00 | 0.00 | 24 | 999.7 |
| 20260505000005 | 82 | 262 | 0.0 | 3.0 | 0.00 | 0.00 | 0.00 | 28 | 999.8 |
| 20260504234503 | 83 | 280 | 0.0 | 4.0 | 0.00 | 0.00 | 0.00 | 24 | 999.7 |
| 20260504233103 | 85 | 252 | 0.0 | 1.0 | 0.00 | 0.00 | 0.00 | 24 | 999.8 |
| 20260504231603 | 83 | 236 | 0.0 | 4.0 | 0.00 | 0.00 | 0.00 | 24 | 1000.0 |
| 20260504230052 | 83 | 283 | 0.0 | 4.0 | 0.00 | 0.00 | 0.00 | 23 | 1000.2 |
| 20260504224548 | 83 | 264 | 2.0 | 7.0 | 0.00 | 0.00 | 0.00 | 23 | 1000.3 |
| 20260504223046 | 83 | 335 | 1.0 | 7.0 | 0.00 | 0.00 | 0.00 | 24 | 1000.4 |
| 20260504221551 | 82 | 124 | 0.0 | 5.0 | 0.00 | 0.00 | 0.00 | 23 | 1000.5 |
| 20260504220040 | 83 | 86 | 0.0 | 4.0 | 0.00 | 0.00 | 0.00 | 24 | 1000.8 |
| 20260504214538 | 83 | 356 | 2.0 | 5.0 | 0.00 | 0.00 | 0.00 | 23 | 1000.8 |
| 20260504213035 | 83 | 92 | 0.0 | 1.0 | 0.00 | 0.00 | 0.00 | 22 | 1000.9 |
| 20260504211537 | 82 | 333 | 1.0 | 4.0 | 0.00 | 0.00 | 0.00 | 23 | 1001.2 |
| 20260504210049 | 82 | 140 | 0.0 | 5.0 | 0.00 | 0.00 | 0.00 | 24 | 1001.4 |
| 20260504204528 | 80 | 271 | 0.0 | 5.0 | 0.00 | 0.00 | 0.00 | 26 | 1001.6 |
| 20260504203032 | 80 | 5 | 0.0 | 6.0 | 0.00 | 0.00 | 0.00 | 27 | 1001.8 |
| 20260504201526 | 80 | 298 | 0.0 | 4.0 | 0.00 | 0.00 | 0.00 | 25 | 1002.0 |
| 20260504200021 | 80 | 53 | 0.0 | 8.0 | 0.00 | 0.00 | 0.00 | 25 | 1002.3 |
| 20260504194532 | 80 | 70 | 1.0 | 4.0 | 0.00 | 0.00 | 0.00 | 22 | 1002.4 |
| 20260504193019 | 79 | 352 | 0.0 | 5.0 | 0.00 | 0.00 | 0.00 | 25 | 1002.6 |
| 20260504191514 | 78 | 271 | 0.0 | 3.0 | 0.00 | 0.00 | 0.00 | 27 | 1002.8 |
| 20260504190012 | 78 | 264 | 0.0 | 4.0 | 0.00 | 0.00 | 0.00 | 25 | 1003.0 |
| 20260504184511 | 78 | 270 | 0.0 | 1.0 | 0.00 | 0.00 | 0.00 | 25 | 1003.2 |
| 20260504183006 | 77 | 264 | 0.0 | 1.0 | 0.00 | 0.00 | 0.00 | 29 | 1003.3 |
| 20260504181502 | 76 | 309 | 0.0 | 1.0 | 0.00 | 0.00 | 0.00 | 41 | 1003.4 |
| 20260504180159 | 75 | 312 | 0.0 | 4.0 | 0.00 | 0.00 | 0.00 | 40 | 1003.5 |
| 20260504174555 | 73 | 314 | 0.0 | 1.0 | 0.00 | 0.00 | 0.00 | 43 | 1003.4 |
| 20260504173100 | 69 | 267 | 0.0 | 1.0 | 0.00 | 0.00 | 0.00 | 45 | 1003.6 |
| 20260504171547 | 68 | 262 | 0.0 | 4.0 | 0.00 | 0.00 | 0.00 | 49 | 1003.7 |